DECAYED

STARLINK-1923, 46754 (Decayed)

Orbit data source: Space-Track

STARLINK-1923, 46754 was a payload satellite owned by SpaceX/Seattle (US) in LEO that was launched on Sat, 24 Oct 2020 UTC via an FALCON 9 launch vehicle from the Air Force Eastern Test Range (AFETR). Payloads include a variety of satellites, spacecraft, and rockets equipped with specific instruments for various scientific and technological missions. These include communications satellites like Starlink; space stations such as the ISS; scientific satellites like the Hubble; Earth observation satellites from companies like Planet Labs, Umbra, and HawkEye 360; GPS; miniature CubeSats for education and research; and military/defense satellites.

Not visible in the next 10 days
STARLINK-1923 details
Identifier
46754, 2020-074R
Orbit
Decayed
Last TLE update4 weeks ago
Origin
Flag of USSpaceX/Seattle (US)
ManufacturerSpaceX/Seattle
MissionDecayed Commercial Communications
Bus & MotorSTARLINK, Unknown motor
Mass260 kg wet, ~248 kg dry
Launch date (UTC)
2020-10-24 (4 years ago)
Launch vehicle
FALCON 9
Launch site
Air Force Eastern Test Range (AFETR)
Object type
Payload
Rocket body
Debris
Shape & HBRBox + 1 Pan, 8.86 m
Radar Cross Section13.562 m², Large (>1 m²)

Expand to show TLE details & history

TLE from 4 weeks ago
0 STARLINK-1923
1 46754U 20074R   24336.92810682  .12800429  12208-4  11940-2 0  9993
2 46754  53.0296 206.0431 0007043 216.4365 245.0377 16.37847989227393
Epoch: 2024-12-01T22:16Z
Definitive object data (Epoch: 2024-12-01T22:16:28.429Z)
Latitude51.71006°
Longitude-90.77717°
Altitude179.629 km
Speed7.804 km/s
True Right ascension20h 58m 24s
True Declination51° 31' 40"
Sunlit
Object was in daylight at TLE epoch
Visualization observer readout
Observer readout values are unavailable because the object's trajectory could not be propagated. This is usually caused when the trajectory data is faulty or the object's orbit has decayed.
Visualization observer readout
Observer readout values are unavailable because the object's trajectory could not be propagated. This is usually caused when the trajectory data is faulty or the object's orbit has decayed.
Orbital elements
Apogee altitude176.437 km
Perigee altitude167.21 km
Semi-major axis6,549.96 km
Eccentricity0.0007043
Inclination53.0296°
RAAN206.0431°
Arg. of periapsis216.4365°
True anomaly244.96456°
Mean anomaly245.0377°
Eccentric anomaly245.00113°
Mean motion4.09435 °/min
BSTAR0.001194
Orbital period87.93 mins
Loading maneuver chart data...

STARLINK-1923 Visibility forecast

Observer location: undefined°, undefined

This satellite is decayed
Span
Click to sort rows by Start time (UTC) header in descending order
Start Az.
Max El. time (UTC)
Max El. Az.
Max El.
End time (UTC)
End Az.
|